カタログに戻る

CZ-6A DEB

運用中SSO
NORAD 56684·DEBRIS·🇨🇳 China

打ち上げ Nov 11, 2022 から Taiyuan Satellite Launch Center

Loading…

次のパス (今後24時間)

TLE

最新Source: Space-Track

元期: Sep 12, 2026, 04:57 UTC

1 56684U 22151AHL 26255.20637872  .00000933  00000-0  61849-3 0  9991
2 56684  98.9332 232.4287 0102624 164.6023 195.8305 14.01329588171001

AllMySatでCZ-6A DEBをリアルタイム追跡

Download on the App Store